DW3478 Weather Reports


time (UTC)temp
C
wind
direction
speed
KPH
gust
KPH
rain 1hr
cm
rain 24hr
cm
rain mn
cm
humidity
%
barometer
mb
20260506222306 13 41 8.0 14.5 0.00 0.00 0.00 65 1013.3
20260506221805 13 25 8.0 19.3 0.00 0.00 0.00 64 1013.4
20260506221304 13 30 8.0 19.3 0.00 0.00 0.00 64 1013.4
20260506220805 13 20 9.7 19.3 0.00 0.00 0.00 64 1013.3
20260506214305 13 31 8.0 19.3 0.00 0.00 0.00 67 1013.5
20260506213805 13 40 8.0 19.3 0.00 0.00 0.00 67 1013.5
20260506212805 13 21 6.4 16.1 0.00 0.00 0.00 67 1013.4
20260506212306 13 33 8.0 14.5 0.00 0.00 0.00 67 1013.5
20260506211804 13 38 8.0 11.3 0.00 0.00 0.00 67 1013.5
20260506211304 13 27 9.7 19.3 0.00 0.00 0.00 66 1013.4
20260506210805 13 31 4.8 16.1 0.00 0.00 0.00 67 1013.2
20260506204804 13 52 4.8 14.5 0.00 0.00 0.00 69 1013.1
20260506204304 13 41 9.7 19.3 0.00 0.00 0.00 69 1013.0
20260506200304 14 44 6.4 19.3 0.00 0.00 0.00 68 1012.8
20260506195804 14 46 9.7 19.3 0.00 0.00 0.00 67 1012.6
20260506195306 15 39 9.7 20.9 0.00 0.00 0.00 67 1012.7
20260506194804 15 49 9.7 27.4 0.00 0.00 0.00 67 1012.7
20260506194304 15 28 6.4 20.9 0.00 0.00 0.00 66 1012.5
20260506192805 15 28 8.0 22.5 0.00 0.00 0.00 66 1012.4
20260506192306 15 35 4.8 11.3 0.00 0.00 0.00 65 1012.2
20260506191804 15 8 3.2 8.0 0.00 0.00 0.00 67 1012.3
20260506191305 15 43 3.2 4.8 0.00 0.00 0.00 65 1012.4
20260506190804 15 48 4.8 11.3 0.00 0.00 0.00 66 1012.3
20260506190305 15 102 3.2 4.8 0.00 0.00 0.00 66 1012.3
20260506184305 16 52 6.4 19.3 0.00 0.00 0.00 64 1012.1
20260506183805 16 48 4.8 19.3 0.00 0.00 0.00 65 1011.9
20260506183304 16 40 8.0 19.3 0.00 0.00 0.00 63 1011.8
20260506181305 16 43 9.7 19.3 0.00 0.00 0.00 63 1011.9
20260506180805 16 39 9.7 22.5 0.00 0.00 0.00 63 1011.8
20260506174304 17 36 9.7 22.5 0.00 0.00 0.00 60 1011.9
20260506173805 17 43 11.3 22.5 0.00 0.00 0.00 59 1011.9
20260506173305 17 38 11.3 20.9 0.00 0.00 0.00 59 1012.1
20260506172805 17 50 11.3 29.0 0.00 0.00 0.00 57 1012.1
20260506171804 18 30 8.0 20.9 0.00 0.00 0.00 59 1011.9
20260506171305 18 37 9.7 24.1 0.00 0.00 0.00 59 1012.0
20260506170804 18 45 11.3 24.1 0.00 0.00 0.00 58 1011.9
20260506165305 18 42 14.5 29.0 0.00 0.00 0.00 59 1011.8
20260506164804 19 18 9.7 25.7 0.00 0.00 0.00 57 1011.7
20260506164304 18 35 4.8 20.9 0.00 0.00 0.00 59 1011.8
20260506163805 18 31 9.7 24.1 0.00 0.00 0.00 59 1012.2
20260506161305 20 234 3.2 11.3 0.00 0.00 0.00 54 1012.0
20260506160304 20 38 9.7 20.9 0.00 0.00 0.00 58 1012.3
20260506155804 19 45 8.0 20.9 0.00 0.00 0.00 61 1012.3
20260506155306 18 49 9.7 19.3 0.00 0.00 0.00 64 1012.1
20260506154804 18 44 8.0 19.3 0.00 0.00 0.00 64 1012.3
20260506154304 19 70 4.8 19.3 0.00 0.00 0.00 65 1012.4
20260506153805 18 143 8.0 14.5 0.00 0.00 0.00 69 1012.3
20260506153304 17 127 16.1 27.4 0.00 0.00 0.00 69 1012.4
20260506152804 16 115 4.8 9.7 0.00 0.00 0.00 74 1012.5
20260506151304 17 191 9.7 14.5 0.00 0.00 0.00 73 1012.5
20260506150805 17 188 8.0 16.1 0.00 0.00 0.00 71 1012.5
20260506150305 17 194 9.7 19.3 0.00 0.00 0.00 70 1012.5
20260506144805 18 172 9.7 19.3 0.00 0.00 0.00 70 1012.4
20260506144306 18 209 11.3 19.3 0.00 0.00 0.00 68 1012.4
20260506143805 18 176 8.0 14.5 0.00 0.00 0.00 71 1012.7
20260506142306 19 209 9.7 19.3 0.00 0.00 0.00 67 1012.7
20260506141305 19 165 8.0 16.1 0.00 0.00 0.00 67 1013.0
20260506140805 19 203 8.0 16.1 0.00 0.00 0.00 69 1012.9
20260506140306 19 202 9.7 19.3 0.00 0.00 0.00 70 1012.9
20260506135306 20 122 8.0 16.1 0.00 0.00 0.00 72 1013.1
20260506130305 16 191 8.0 11.3 0.00 0.00 0.00 83 1013.7
20260506123805 17 164 8.0 16.1 0.00 0.00 0.00 82 1014.1
20260506121805 19 170 6.4 16.1 0.00 0.00 0.00 75 1013.9
20260506120305 20 79 6.4 16.1 0.00 0.00 0.00 54 1013.8
20260506115806 20 47 8.0 19.3 0.00 0.00 0.00 53 1014.1
20260506115307 20 27 6.4 19.3 0.00 0.00 0.00 53 1014.1
20260506114805 20 79 4.8 19.3 0.00 0.00 0.00 56 1013.9
20260506114305 20 42 8.0 19.3 0.00 0.00 0.00 54 1014.2
20260506113806 19 41 8.0 24.1 0.00 0.00 0.00 59 1013.8
20260506112805 18 47 16.1 35.4 0.00 0.00 0.00 59 1013.9
20260506112306 18 26 14.5 32.2 0.00 0.00 0.00 59 1014.2
20260506111305 20 81 8.0 16.1 0.00 0.00 0.00 61 1014.4
20260506110805 19 62 8.0 25.7 0.00 0.00 0.00 64 1014.3
20260506110306 19 39 12.9 25.7 0.00 0.00 0.00 61 1014.3
20260506105305 18 39 12.9 32.2 0.00 0.00 0.00 60 1014.4
20260506103805 18 71 11.3 24.1 0.00 0.00 0.00 64 1014.1
20260506103305 18 50 11.3 24.1 0.00 0.00 0.00 61 1014.2
20260506102805 18 46 9.7 22.5 0.00 0.00 0.00 63 1014.3
20260506102306 18 44 14.5 24.1 0.00 0.00 0.00 63 1014.1
20260506101806 18 46 9.7 32.2 0.00 0.00 0.00 63 1014.1
20260506095805 17 41 11.3 32.2 0.00 0.00 0.00 67 1014.0
20260506094305 17 33 12.9 32.2 0.00 0.00 0.00 68 1014.0
20260506093806 17 66 11.3 24.1 0.00 0.00 0.00 68 1013.9
20260506091305 17 58 9.7 22.5 0.00 0.00 0.00 68 1013.7
20260506082305 15 91 11.3 25.7 0.00 0.00 0.00 72 1013.2
20260506080805 16 60 9.7 19.3 0.00 0.00 0.00 71 1013.1
20260506080305 16 52 11.3 27.4 0.00 0.00 0.00 72 1013.0
20260506070805 14 65 8.0 19.3 0.00 0.00 0.00 76 1012.8
20260506061305 14 99 14.5 22.5 0.00 0.00 0.00 76 1012.0
20260506060305 14 117 6.4 14.5 0.00 0.00 0.00 78 1012.1
20260506044805 14 98 8.0 16.1 0.00 0.00 0.00 86 1012.3
20260506043804 15 86 1.6 9.7 0.00 0.00 0.00 89 1012.3
20260506043306 15 293 3.2 9.7 0.00 0.00 0.00 89 1012.0
20260506042804 15 218 1.6 4.8 0.00 0.00 0.00 89 1012.3
20260506042305 15 16 1.6 4.8 0.00 0.00 0.00 89 1012.3
20260506041305 15 271 1.6 4.8 0.00 0.00 0.00 88 1012.2
20260506040805 15 267 1.6 4.8 0.00 0.00 0.00 88 1012.2
20260506035306 15 163 1.6 4.8 0.00 0.00 0.00 88 1012.1
20260506034805 15 225 8.0 11.3 0.00 0.00 0.00 88 1012.2
20260506034305 15 264 8.0 19.3 0.00 0.00 0.00 87 1012.3
20260506033805 15 282 8.0 14.5 0.00 0.00 0.00 88 1012.2
20260506032306 15 247 1.6 4.8 0.00 0.00 0.00 88 1012.4
20260506031805 15 244 4.8 9.7 0.00 0.00 0.00 88 1012.3
20260506030805 15 222 4.8 8.0 0.00 0.00 0.00 88 1012.3
20260506025804 15 207 3.2 8.0 0.00 0.00 0.00 88 1012.1
20260506025306 15 224 1.6 4.8 0.00 0.00 0.00 88 1012.3
20260506024804 15 166 1.6 4.8 0.00 0.00 0.00 88 1012.2
20260506023805 15 191 1.6 3.2 0.00 0.00 0.00 88 1012.2
20260506023304 15 271 0.0 1.6 0.00 0.00 0.00 88 1012.2
20260506022804 15 271 0.0 0.0 0.00 0.00 0.00 88 1012.4
20260506022306 15 260 1.6 4.8 0.00 0.00 0.00 87 1012.4
20260506021805 15 338 3.2 4.8 0.00 0.00 0.00 87 1012.3
20260506021305 15 223 3.2 4.8 0.00 0.00 0.00 87 1012.5
20260506020804 15 195 1.6 4.8 0.00 0.00 0.00 87 1012.5
20260506015306 15 217 1.6 4.8 0.00 0.00 0.00 87 1012.7
20260506014804 15 188 1.6 3.2 0.00 0.00 0.00 86 1012.8
20260506012307 15 229 0.0 4.8 0.00 0.00 0.00 86 1013.0
20260506011304 15 219 1.6 4.8 0.00 0.00 0.00 85 1013.1
20260506010805 15 259 0.0 4.8 0.00 0.00 0.00 84 1013.0
20260506010304 15 354 1.6 4.8 0.00 0.00 0.00 83 1013.1
20260506004805 15 307 3.2 8.0 0.00 0.00 0.00 81 1013.2
20260506004305 15 344 1.6 8.0 0.00 0.00 0.00 80 1013.1
20260506003805 15 224 1.6 4.8 0.00 0.00 0.00 78 1013.2
20260506002306 15 242 1.6 4.8 0.00 0.00 0.00 77 1013.1
20260505235804 15 249 0.0 1.6 0.00 0.00 0.00 78 1013.0
20260505232804 15 65 6.4 19.3 0.00 0.00 0.00 77 1013.1
20260505231804 15 60 11.3 19.3 0.00 0.00 0.00 78 1013.1
20260505231304 15 53 11.3 20.9 0.00 0.00 0.00 78 1013.1
20260505230804 15 50 11.3 20.9 0.00 0.00 0.00 78 1012.9
20260505230305 15 61 11.3 24.1 0.00 0.00 0.00 77 1013.1
20260505225805 15 80 19.3 29.0 0.00 0.00 0.00 77 1013.1
20260505224305 15 75 14.5 24.1 0.00 0.00 0.00 79 1013.1